GFSCGP_sfc_rhum_276.txt.gz
RH
46 53 62 52 47 36 36 42 36 33 38 49 44 38 31 34 42 39 39 38 39 40 41 39 40 44 46 41 42 47 58 68 73 83 92 94 94 94 94 94 96 95 94 95
51 62 48 46 43 42 42 40 45 42 43 49 48 45 35 32 38 47 44 41 39 38 43 41 41 45 43 42 45 49 54 66 70 80 85 93 94 95 96 93 92 95 97 98
65 57 45 44 48 44 51 53 57 58 52 49 55 46 34 32 36 35 39 41 36 41 48 54 47 62 45 48 51 49 59 66 70 74 78 88 88 90 93 93 92 93 95 95
57 51 49 53 46 51 53 52 51 57 71 75 48 57 35 37 34 38 36 39 58 56 45 44 46 62 56 52 54 56 61 66 66 72 82 88 94 94 93 95 95 93 91 94
75 58 57 56 56 55 63 56 58 62 74 75 68 59 35 30 28 34 36 42 47 60 59 49 48 47 52 51 57 62 65 67 66 74 81 88 91 95 93 93 93 91 90 90
67 60 60 64 53 59 57 61 65 60 67 95 72 54 38 22 26 31 35 36 39 51 62 58 45 48 51 50 55 64 62 63 67 75 82 84 82 85 92 91 93 93 93 92
63 60 61 59 68 64 66 77 93 79 93 85 49 53 38 21 28 32 37 58 59 59 54 49 58 52 55 55 54 56 59 65 68 77 82 81 78 76 79 89 93 94 94 93
85 78 65 58 71 76 64 62 89 44 86 72 49 40 28 29 29 33 36 46 52 51 44 58 54 53 56 58 54 56 61 70 70 74 82 79 77 76 77 76 86 92 94 94
76 78 66 64 63 66 78 86 62 83 88 84 51 25 19 31 27 38 39 40 42 53 46 62 50 53 56 53 53 57 61 70 71 75 78 77 79 80 80 77 76 79 89 87
76 77 82 67 71 70 77 57 78 92 71 70 75 40 28 31 26 31 36 40 37 39 46 50 51 57 58 56 54 55 59 70 75 76 80 79 81 79 78 77 78 77 81 81
85 79 93 74 85 81 72 83 57 61 69 86 88 68 35 21 23 29 32 35 41 39 40 43 53 59 62 58 55 58 62 70 78 79 81 81 81 80 79 79 78 79 81 79
64 78 87 85 80 64 69 65 51 82 84 82 85 55 41 39 39 41 39 39 42 44 43 48 53 60 66 63 55 58 62 71 76 79 81 84 81 81 83 83 82 83 82 80
54 81 78 96 85 76 84 66 57 55 70 85 86 70 38 34 45 42 46 53 60 54 52 54 59 63 62 58 54 58 62 71 74 80 84 84 85 85 87 87 86 86 86 88
54 92 85 87 77 79 86 82 64 68 87 85 72 67 50 65 59 53 66 81 80 80 74 75 74 71 72 63 54 56 62 68 75 84 85 86 86 87 88 88 89 91 89 90
51 70 81 81 64 52 72 84 77 75 65 61 67 76 54 81 73 64 67 66 78 85 89 89 94 98 97 80 70 62 68 76 71 87 86 84 84 84 88 90 92 92 92 91
54 82 82 78 83 75 77 69 81 73 76 76 66 62 38 35 52 75 82 82 74 74 80 88 98 97 99 98 85 70 90 82 76 88 86 83 86 86 92 90 92 93 93 92
65 81 88 82 78 80 84 72 65 81 80 64 67 49 47 54 50 49 53 64 64 58 57 76 80 87 92 89 85 75 74 78 79 96 92 92 93 98 94 95 90 95 96 96
68 77 94 89 85 90 74 61 63 63 71 64 56 53 55 50 46 43 44 53 53 52 52 58 68 72 84 86 87 72 71 76 82 85 88 88 92 97 99 99 90 91 92 95
62 71 94 92 96 79 59 61 59 62 53 52 57 47 46 50 40 34 32 37 42 48 50 55 63 58 75 82 80 76 77 79 81 85 86 89 87 90 90 91 92 93 94 92
59 56 83 98 97 92 69 55 50 44 58 40 47 49 51 42 48 38 30 36 40 35 47 55 64 58 68 73 75 79 79 81 83 84 84 85 88 89 90 91 92 92 92 93
93 92 93 95 93 86 63 46 47 61 58 40 39 47 51 47 39 36 52 46 46 51 57 69 63 59 63 71 75 77 79 79 78 83 86 85 85 85 88 89 91 92 93 94
90 93 95 91 93 92 55 45 43 43 40 37 41 45 50 47 43 44 50 54 59 64 73 76 73 71 69 73 74 74 77 77 86 92 94 94 94 89 91 97 97 97 97 97
84 76 83 73 74 60 45 46 42 43 35 43 39 46 49 50 46 39 43 52 57 65 76 78 77 84 89 85 81 77 81 86 90 93 95 96 96 96 97 97 98 98 98 98
75 65 86 70 62 55 58 50 47 46 44 41 46 41 48 46 44 38 41 50 59 70 82 90 88 87 84 89 86 84 89 88 87 89 93 96 96 97 98 98 98 98 99 99
84 68 83 79 67 63 60 55 48 49 54 50 47 44 43 45 42 39 46 59 64 71 88 89 85 84 82 89 87 89 90 89 89 88 90 93 93 94 97 96 96 96 96 94
84 80 72 72 60 49 47 58 61 60 58 59 60 60 58 54 54 48 53 63 69 80 91 88 85 87 87 88 88 89 88 87 86 88 91 89 91 95 96 96 95 84 84 82

GFSCGP_sfc_rhum_279.txt.gz
RH
46 58 68 66 58 48 45 52 44 42 50 50 55 55 47 40 46 45 46 48 47 44 48 47 46 47 47 45 48 53 63 73 79 88 94 96 95 94 94 94 91 91 90 90
54 66 60 53 49 50 52 55 52 42 50 54 58 56 48 45 40 43 45 48 46 46 50 48 52 52 46 49 52 55 62 69 76 85 90 95 97 96 95 92 89 92 92 96
65 64 52 51 53 46 60 62 66 68 61 60 58 39 40 41 40 42 42 44 44 49 50 54 51 52 53 57 59 58 64 71 74 81 85 92 91 93 92 94 95 93 95 97
63 57 56 58 59 57 57 64 64 67 80 42 48 28 42 42 42 43 44 47 44 60 58 57 50 60 62 59 60 62 66 67 66 80 89 93 91 92 93 92 96 95 95 96
72 65 61 58 65 62 68 65 69 70 78 75 65 61 42 44 35 42 44 43 44 47 48 51 52 52 54 57 62 71 67 70 71 78 83 93 94 97 98 97 94 94 94 94
74 66 68 71 60 66 65 69 76 67 76 74 72 41 24 39 30 41 43 43 43 53 53 56 54 53 56 58 65 68 65 66 71 79 88 92 92 92 94 91 94 95 94 94
68 69 68 64 74 70 73 81 71 58 80 51 50 44 21 26 33 33 39 57 61 62 60 56 57 61 61 61 59 59 64 69 72 83 88 87 87 79 88 91 93 94 93 93
66 57 73 63 79 78 68 63 69 24 70 52 53 40 19 31 37 36 38 60 52 53 52 62 60 62 62 56 61 63 68 73 73 77 86 82 80 82 83 80 83 91 94 94
68 61 73 72 72 71 77 90 62 82 94 78 41 35 20 35 30 43 53 50 45 63 55 63 60 63 63 59 61 62 67 75 74 78 85 90 90 91 94 85 78 80 87 84
70 60 83 72 76 73 76 60 73 86 37 42 61 62 28 28 23 39 43 46 53 47 53 59 62 66 66 61 59 62 66 80 81 81 83 84 86 84 86 87 86 82 82 84
73 65 81 69 86 78 69 85 57 69 74 66 73 45 52 22 23 30 34 35 56 57 50 53 66 69 69 62 60 65 69 78 82 86 88 86 85 84 83 84 84 86 85 84
56 73 82 66 81 67 72 70 51 68 68 87 83 53 40 37 38 38 39 39 43 46 47 54 64 72 74 70 60 64 70 77 80 86 88 88 85 86 87 87 86 87 88 87
47 66 69 70 82 79 78 68 60 58 77 81 72 64 53 37 36 34 40 46 54 57 59 60 65 72 76 72 62 66 70 77 79 87 89 86 87 88 89 89 88 88 89 89
55 86 65 69 76 76 75 86 69 64 78 70 74 62 49 66 64 59 56 71 71 67 66 70 75 75 80 64 60 66 71 75 81 88 90 90 88 89 90 90 91 92 90 91
51 60 82 81 65 57 69 79 82 74 58 60 62 73 51 74 68 68 68 63 76 82 86 87 92 95 95 79 69 67 72 77 79 90 90 87 87 87 89 92 93 93 94 92
53 80 80 75 86 76 72 66 81 73 79 74 69 60 36 35 54 74 68 82 74 68 76 81 88 92 97 98 81 71 91 79 82 90 90 89 86 90 92 92 94 94 94 93
61 80 84 82 81 78 78 68 64 79 79 61 64 46 51 49 43 50 51 58 71 58 50 64 72 87 90 94 87 79 76 82 86 96 92 93 96 96 95 94 92 94 96 96
69 80 93 90 88 94 72 65 58 60 62 67 56 54 55 50 46 46 45 50 48 45 48 57 65 71 82 86 90 77 80 82 86 92 93 93 93 98 98 98 92 92 93 97
63 84 98 96 96 79 62 61 65 61 56 53 55 48 50 54 46 43 38 40 46 46 50 60 66 68 80 84 83 79 82 84 86 89 90 90 89 90 91 92 93 94 93 93
58 68 93 98 98 93 64 55 51 44 63 43 56 54 61 51 54 46 41 41 43 49 55 61 72 68 76 83 84 80 81 84 85 88 88 88 89 90 90 91 92 92 92 94
92 90 97 96 97 87 64 48 48 67 59 38 40 48 56 51 45 38 49 47 48 50 56 65 64 64 68 82 81 79 82 83 81 86 88 88 88 89 89 90 92 92 93 94
91 94 97 96 98 94 60 46 50 49 40 34 37 39 54 52 44 42 51 57 55 54 68 75 68 67 73 80 74 73 78 78 87 90 92 93 94 92 94 95 98 98 96 98
86 80 88 81 80 68 49 54 47 43 36 39 39 41 46 53 51 45 38 51 55 62 70 78 74 80 88 84 80 77 83 87 91 93 93 94 95 95 96 97 98 99 99 98
85 75 89 78 70 65 64 53 50 44 43 42 42 40 46 44 44 46 42 49 59 67 85 92 87 84 82 87 84 77 84 88 88 90 92 95 94 97 99 97 96 98 99 100
84 75 83 82 68 70 60 60 55 52 54 50 49 46 44 46 45 42 46 55 63 69 89 91 86 84 82 87 85 87 87 88 87 87 90 93 94 94 95 96 96 95 94 92
84 79 74 77 64 57 51 64 60 63 59 58 59 65 64 58 59 56 55 60 70 80 91 89 86 88 84 87 86 88 88 86 85 86 88 89 92 94 94 94 94 86 84 84

GFSCGP_sfc_rhum_285.txt.gz
RH
58 46 38 69 71 54 49 56 56 43 56 58 63 59 43 39 49 51 52 58 53 50 58 62 57 61 60 54 54 58 65 72 82 88 96 96 97 94 98 94 89 86 87 87
41 40 62 61 56 55 55 50 45 40 49 59 61 60 52 54 56 51 48 52 51 54 52 57 64 66 54 55 58 60 66 74 80 87 92 97 97 96 95 92 89 88 89 90
40 57 59 55 58 51 64 56 56 51 62 63 67 32 21 41 52 54 49 56 56 51 49 66 66 62 61 61 63 63 70 78 82 86 86 94 94 93 94 90 90 90 89 91
58 63 58 58 61 60 36 67 66 66 68 30 49 24 22 39 40 44 44 49 51 55 56 62 66 66 62 62 67 71 74 80 75 86 91 95 98 96 91 93 92 90 91 92
59 62 58 57 62 67 52 71 70 71 72 77 56 50 24 36 37 33 33 39 50 53 51 56 63 57 62 64 70 77 72 77 83 87 93 97 96 93 91 91 90 91 94 94
71 71 70 72 67 72 72 70 70 79 71 69 62 33 23 27 31 30 42 53 50 50 58 67 65 62 66 68 72 71 71 80 84 89 92 94 96 90 92 89 92 94 93 95
63 65 71 70 67 74 68 57 68 61 71 55 56 52 28 19 27 32 31 39 48 51 60 63 66 69 68 70 67 66 76 85 83 88 92 94 95 91 93 88 93 95 94 95
62 63 63 74 73 65 64 49 66 29 52 48 48 42 20 26 31 37 42 45 52 53 58 65 69 70 71 68 69 70 76 82 83 82 91 94 94 95 84 84 90 95 95 96
63 53 73 76 80 70 69 83 58 73 93 80 43 32 33 30 32 32 36 44 48 48 54 68 72 74 74 68 66 70 77 84 83 84 89 87 87 89 89 87 85 89 90 89
59 53 81 70 79 74 70 61 62 78 36 44 58 42 37 26 24 26 35 44 48 49 58 62 70 75 74 71 67 72 81 86 88 89 84 86 91 90 92 87 87 87 87 91
74 67 73 64 78 68 71 80 59 60 64 63 69 42 47 26 20 18 25 38 43 45 46 52 72 78 76 71 69 74 82 87 90 93 85 86 90 92 94 94 88 88 88 90
48 66 78 64 78 75 81 59 47 61 57 89 82 49 38 40 28 33 32 35 44 47 46 53 71 81 82 76 70 74 81 88 91 92 85 87 86 86 88 90 94 90 90 91
47 59 75 77 78 70 77 70 55 66 71 78 70 59 53 61 42 40 44 48 50 53 52 58 72 82 84 84 70 77 81 87 92 92 86 87 90 90 91 92 92 95 92 94
54 83 75 75 69 63 70 80 67 65 79 68 65 59 44 63 61 55 52 62 61 65 66 64 73 79 83 85 71 75 83 87 92 91 86 90 92 92 92 92 93 95 95 96
46 64 71 82 70 56 56 73 83 71 51 56 54 64 49 63 70 69 71 66 74 77 84 81 84 89 90 82 74 75 81 87 92 92 87 90 92 90 92 94 94 94 95 94
56 81 83 90 86 84 73 68 75 72 81 67 60 58 34 34 52 70 67 73 70 70 80 81 83 87 89 88 78 74 90 86 92 92 92 87 90 92 94 94 95 95 96 95
70 84 94 95 88 83 83 74 72 77 75 54 65 47 55 59 48 52 52 53 55 50 58 76 74 83 89 91 78 76 82 86 94 98 92 93 95 96 95 96 92 96 98 97
84 87 94 94 90 96 73 73 64 67 67 64 57 55 52 58 54 58 53 47 44 46 50 61 65 70 81 86 91 75 82 88 93 95 93 92 93 96 99 100 93 93 94 98
73 83 99 93 96 82 67 75 70 67 59 57 56 48 48 59 56 49 49 58 52 46 46 54 58 65 77 81 86 78 84 87 92 94 93 93 92 93 94 94 94 93 94 95
65 85 90 99 97 96 70 68 59 62 69 50 57 57 60 54 46 42 43 52 47 50 46 54 65 70 73 79 85 79 80 86 88 90 92 91 91 91 92 92 93 93 94 95
93 95 98 95 96 88 71 50 58 74 61 50 58 55 57 48 41 44 51 48 53 56 57 69 72 65 68 83 82 80 83 85 83 89 91 91 90 91 90 91 91 93 95 95
90 95 97 98 97 94 64 52 60 57 46 36 36 35 49 52 54 58 42 49 56 61 72 78 75 70 76 84 79 81 83 82 89 94 96 95 96 94 95 96 98 98 97 97
83 80 84 82 79 68 56 62 53 51 37 32 38 38 42 42 48 52 50 52 54 63 73 78 75 81 91 87 83 82 85 88 93 95 95 95 96 97 97 97 98 98 98 98
92 83 90 80 78 74 74 62 58 51 40 41 42 41 43 42 44 44 45 49 54 65 84 91 85 84 83 89 86 84 86 90 90 91 94 96 94 96 98 98 97 98 99 98
91 82 90 88 77 75 71 73 67 60 57 48 47 44 44 45 46 48 49 51 58 65 91 91 84 81 78 86 86 86 87 88 90 93 95 95 95 94 96 97 96 96 96 93
91 88 80 85 68 67 62 67 68 69 66 64 64 58 56 54 57 62 61 64 69 82 91 91 89 88 84 85 83 87 86 87 86 89 92 92 94 96 97 97 95 84 84 80

GFSCGP_sfc_rhum_291.txt.gz
RH
55 43 32 37 54 48 42 41 38 36 58 55 49 52 35 34 45 49 48 46 45 45 46 49 53 55 55 52 50 52 59 67 74 79 85 87 89 86 87 87 84 78 85 86
38 33 57 55 55 52 50 45 37 36 50 55 49 45 44 42 46 52 48 44 42 48 45 45 51 55 54 52 53 56 62 70 76 80 84 89 90 90 89 89 81 81 83 85
36 55 59 54 52 48 53 44 48 45 55 64 58 29 18 30 41 45 46 47 48 45 45 46 50 56 59 56 55 56 66 72 75 80 82 85 85 86 88 84 83 83 85 87
56 68 56 57 51 44 29 61 60 60 52 33 47 31 26 24 30 38 33 40 45 48 50 50 52 56 59 59 61 64 67 72 74 80 84 88 90 92 87 88 87 86 85 89
50 62 60 54 53 61 45 69 69 68 67 65 45 44 26 20 25 24 29 40 46 46 52 50 53 57 58 63 63 67 67 74 78 80 85 87 90 89 87 86 86 86 87 88
73 72 66 63 71 70 71 69 63 66 63 67 53 34 23 13 23 27 27 32 41 49 53 53 61 62 61 65 64 65 70 76 77 82 85 88 90 90 90 88 90 90 92 94
59 63 69 70 63 70 63 53 75 72 75 60 54 53 31 19 18 28 25 26 39 48 51 56 57 64 65 63 64 62 72 76 79 83 86 89 89 89 90 89 91 91 93 92
65 63 64 73 67 56 51 44 71 54 56 46 48 39 22 30 28 29 36 34 41 46 52 54 57 65 68 64 64 63 71 78 80 85 86 84 86 86 83 82 87 91 93 93
69 67 71 77 79 65 60 70 50 76 92 70 40 27 23 28 25 27 28 32 31 40 47 53 62 68 70 66 65 66 72 79 83 86 85 85 86 88 86 86 87 87 88 86
54 68 79 70 76 66 62 57 56 77 50 51 60 39 31 20 17 18 21 24 27 44 47 55 64 70 73 68 66 69 74 82 87 86 82 82 82 83 85 85 88 88 88 86
70 71 78 65 78 64 65 77 56 54 63 65 69 54 44 26 16 16 17 20 24 37 42 46 64 72 73 70 68 70 76 84 89 86 82 87 86 86 84 87 87 88 89 92
52 72 78 70 75 79 80 49 48 68 66 89 78 54 39 38 39 31 26 28 36 39 43 47 61 75 77 72 68 69 76 85 89 85 87 90 88 85 86 87 88 88 92 94
45 67 82 76 78 71 80 68 48 61 69 79 70 69 50 53 47 43 40 41 45 47 49 52 67 78 78 77 70 70 76 85 88 84 89 90 90 89 89 92 90 92 92 94
55 85 72 62 63 70 80 81 58 62 77 70 65 60 49 62 61 58 62 70 71 75 71 63 67 78 82 83 73 71 75 84 88 85 89 93 92 91 91 92 93 94 92 95
48 65 83 85 77 53 58 79 77 65 54 58 66 63 49 64 65 70 72 59 70 79 81 84 83 85 87 88 80 74 77 86 91 92 91 92 92 90 91 93 95 95 95 94
54 77 82 79 86 82 67 75 80 80 86 68 74 60 40 38 56 69 67 71 68 66 77 83 85 84 87 90 82 70 87 86 91 92 94 90 91 92 94 94 95 96 96 94
60 83 86 82 90 85 87 70 74 78 72 56 61 45 52 58 52 57 58 61 63 61 60 61 73 82 83 84 72 75 78 86 92 93 94 95 97 98 97 95 94 96 97 95
69 80 92 93 92 96 75 74 66 61 72 62 58 58 57 59 57 59 58 57 58 56 58 55 65 76 80 83 83 76 80 89 94 93 92 94 92 97 100 100 95 95 95 96
75 86 95 89 98 81 80 74 74 71 61 62 57 50 59 66 60 54 55 55 47 50 55 58 67 73 80 79 74 75 83 92 96 94 92 93 94 95 94 96 96 94 95 94
82 88 90 98 95 92 70 70 66 64 67 61 63 64 66 63 51 44 42 52 48 50 58 57 71 71 80 85 72 74 81 91 95 94 92 92 93 93 94 94 94 95 96 97
94 95 90 95 97 87 73 70 63 67 56 56 67 64 65 54 39 39 56 54 53 53 51 63 68 67 71 86 74 76 84 86 87 92 92 93 92 92 92 92 92 95 95 94
87 85 89 98 93 89 67 66 54 52 55 54 60 60 62 53 48 51 56 50 51 57 65 63 63 64 76 85 71 75 77 81 90 94 96 97 96 95 94 94 98 97 96 96
73 64 74 68 76 69 53 54 59 60 43 39 38 40 48 48 47 46 45 56 54 59 69 72 65 79 90 88 83 77 83 89 92 95 97 97 97 98 97 96 97 96 96 94
89 84 86 72 80 73 62 61 60 54 43 36 38 43 47 42 46 49 50 48 55 68 84 88 83 83 83 88 87 87 88 90 91 93 96 97 96 98 99 97 96 95 96 95
89 80 88 86 82 76 73 68 59 61 54 43 44 44 44 45 46 47 52 54 58 68 92 90 85 86 83 87 88 89 89 89 90 92 94 96 94 95 97 97 96 96 95 92
90 88 71 68 72 67 62 63 75 68 58 56 51 50 51 54 56 57 62 70 73 87 94 93 88 87 88 89 88 89 89 88 88 90 91 91 94 93 93 93 92 84 84 83